Location: Cucq
(50.4773°N, 1.6202°E)
Time: 16:54:13
(UTC+00:00)

Cosmos 836 Rocket - Pass Details

Date: 07 August 2020
Orbit: 758 x 778 km, 74.1° (Epoch: 25 September)

Event Time Altitude Azimuth Distance (km) Brightness Sun altitude
Rises 00:03:03 0° 334° (NNW) 3,232 8.8 -23.2°
Reaches altitude 10° 00:05:26 10° 333° (NNW) 2,301 7.8 -23.2°
Maximum altitude 00:10:38 75° 250° (WSW) 791 4.4 -23.1°
Enters shadow 00:11:26 61° 190° (S) 858 4.4 -23.1°
